Location: Ellingshausen
(50.5460°N, 10.4723°E)
Time: 23:08:24
(UTC+00:00)

SJ-12 - Pass Details

Date: 18 January 2026
Orbit: 515 x 525 km, 97.8° (Epoch: 9 February)

Event Time Altitude Azimuth Distance (km) Brightness Sun altitude
Rises 05:52:04 0° 17° (NNE) 2,672 7.3 -12.1°
Reaches altitude 10° 05:54:13 10° 21° (NNE) 1,776 6.5 -11.8°
Maximum altitude 05:58:00 58° 101° (E) 617 4.4 -11.2°
Drops below altitude 10° 06:01:44 10° 181° (S) 1,754 6.6 -10.6°
Sets 06:03:51 0° 186° (S) 2,635 7.5 -10.3°
